QPF
0.00 0.00 0.00 0.00 0.00 0.00 0.00 0.00 0.00 0.00 0.00 0.00 0.00 0.00 0.00 0.00 0.00 0.00 0.00 0.00 0.00 0.00 0.00 0.00 0.00 0.00 0.00 0.00 0.00 0.00 0.00 0.00 0.00 0.01 0.04 0.06 0.02 0.01 0.01 0.01 0.00 0.00 0.00 0.00 0.00
0.00 0.00 0.00 0.00 0.00 0.00 0.00 0.00 0.00 0.00 0.00 0.00 0.00 0.00 0.00 0.00 0.00 0.00 0.00 0.00 0.00 0.00 0.00 0.00 0.00 0.00 0.00 0.00 0.00 0.00 0.00 0.00 0.00 0.01 0.01 0.02 0.02 0.00 0.01 0.02 0.04 0.01 0.00 0.00 0.00
0.00 0.00 0.00 0.00 0.00 0.00 0.00 0.00 0.00 0.00 0.00 0.00 0.00 0.00 0.00 0.00 0.00 0.00 0.00 0.00 0.00 0.00 0.00 0.00 0.00 0.00 0.00 0.00 0.00 0.00 0.00 0.01 0.02 0.02 0.02 0.01 0.00 0.00 0.00 0.01 0.01 0.00 0.00 0.00 0.00
0.00 0.00 0.00 0.00 0.00 0.00 0.00 0.00 0.00 0.00 0.00 0.00 0.00 0.00 0.00 0.00 0.00 0.00 0.00 0.00 0.00 0.00 0.00 0.00 0.00 0.00 0.00 0.00 0.00 0.00 0.00 0.00 0.00 0.00 0.00 0.03 0.01 0.00 0.00 0.00 0.00 0.00 0.00 0.00 0.00
0.00 0.00 0.00 0.00 0.00 0.00 0.00 0.00 0.00 0.00 0.00 0.00 0.00 0.00 0.00 0.00 0.00 0.00 0.00 0.00 0.00 0.00 0.00 0.00 0.00 0.00 0.00 0.00 0.00 0.00 0.00 0.00 0.01 0.01 0.03 0.04 0.02 0.00 0.00 0.00 0.00 0.00 0.00 0.00 0.00
0.00 0.00 0.00 0.00 0.00 0.00 0.00 0.00 0.00 0.00 0.00 0.00 0.00 0.00 0.00 0.00 0.00 0.00 0.00 0.00 0.00 0.00 0.00 0.00 0.00 0.00 0.00 0.00 0.00 0.00 0.00 0.01 0.04 0.04 0.03 0.02 0.01 0.01 0.00 0.00 0.00 0.00 0.00 0.00 0.00
0.00 0.00 0.00 0.00 0.00 0.00 0.00 0.00 0.00 0.00 0.00 0.00 0.00 0.00 0.00 0.00 0.00 0.00 0.00 0.00 0.00 0.00 0.00 0.00 0.00 0.00 0.00 0.00 0.00 0.00 0.00 0.02 0.06 0.07 0.04 0.03 0.02 0.01 0.00 0.00 0.00 0.00 0.02 0.02 0.01
0.00 0.00 0.00 0.00 0.00 0.00 0.00 0.00 0.00 0.00 0.00 0.00 0.00 0.00 0.00 0.00 0.00 0.00 0.00 0.00 0.00 0.00 0.00 0.00 0.00 0.00 0.00 0.00 0.00 0.00 0.00 0.00 0.01 0.05 0.05 0.06 0.01 0.01 0.00 0.00 0.00 0.01 0.01 0.00 0.00
0.00 0.00 0.00 0.00 0.00 0.00 0.00 0.00 0.00 0.00 0.00 0.00 0.00 0.00 0.00 0.00 0.00 0.00 0.00 0.00 0.00 0.00 0.00 0.00 0.00 0.00 0.00 0.00 0.00 0.00 0.00 0.00 0.00 0.00 0.01 0.04 0.00 0.00 0.00 0.00 0.00 0.00 0.00 0.00 0.00
0.00 0.00 0.00 0.00 0.00 0.00 0.00 0.00 0.00 0.00 0.00 0.00 0.00 0.00 0.00 0.00 0.00 0.00 0.00 0.00 0.00 0.00 0.00 0.00 0.00 0.00 0.00 0.00 0.00 0.00 0.00 0.00 0.00 0.00 0.00 0.00 0.00 0.00 0.01 0.03 0.02 0.01 0.00 0.00 0.00
0.00 0.00 0.00 0.00 0.00 0.00 0.00 0.00 0.00 0.00 0.00 0.00 0.00 0.00 0.00 0.00 0.00 0.00 0.00 0.00 0.00 0.00 0.00 0.00 0.00 0.00 0.00 0.00 0.00 0.00 0.00 0.00 0.00 0.00 0.00 0.00 0.00 0.01 0.01 0.02 0.05 0.06 0.02 0.00 0.01
0.00 0.00 0.00 0.00 0.00 0.00 0.00 0.00 0.00 0.00 0.00 0.00 0.00 0.00 0.00 0.00 0.00 0.00 0.00 0.00 0.00 0.00 0.00 0.00 0.00 0.00 0.00 0.00 0.00 0.00 0.00 0.00 0.00 0.00 0.00 0.00 0.00 0.00 0.00 0.00 0.01 0.01 0.00 0.00 0.00
0.00 0.00 0.00 0.00 0.00 0.00 0.00 0.00 0.00 0.00 0.00 0.00 0.00 0.00 0.00 0.00 0.00 0.00 0.00 0.00 0.00 0.00 0.00 0.00 0.00 0.00 0.00 0.00 0.00 0.00 0.00 0.00 0.00 0.00 0.00 0.00 0.00 0.00 0.01 0.00 0.00 0.00 0.00 0.00 0.00
0.00 0.00 0.00 0.00 0.00 0.00 0.00 0.00 0.00 0.00 0.00 0.00 0.00 0.00 0.00 0.00 0.00 0.00 0.00 0.00 0.00 0.00 0.00 0.00 0.00 0.00 0.00 0.00 0.00 0.00 0.00 0.00 0.00 0.00 0.00 0.00 0.00 0.00 0.00 0.00 0.00 0.00 0.00 0.00 0.00
0.00 0.00 0.00 0.00 0.00 0.00 0.00 0.00 0.00 0.00 0.00 0.00 0.00 0.00 0.00 0.00 0.00 0.00 0.00 0.00 0.00 0.00 0.00 0.00 0.00 0.00 0.00 0.00 0.00 0.00 0.00 0.00 0.00 0.00 0.00 0.00 0.00 0.00 0.00 0.00 0.00 0.00 0.00 0.00 0.00
0.00 0.00 0.00 0.00 0.00 0.00 0.00 0.00 0.00 0.00 0.00 0.00 0.00 0.00 0.00 0.00 0.00 0.00 0.00 0.00 0.00 0.00 0.00 0.00 0.00 0.00 0.00 0.00 0.00 0.00 0.00 0.00 0.00 0.00 0.00 0.00 0.00 0.00 0.00 0.00 0.00 0.00 0.00 0.00 0.00
0.00 0.00 0.00 0.00 0.00 0.00 0.00 0.00 0.00 0.00 0.00 0.00 0.00 0.00 0.00 0.00 0.00 0.00 0.00 0.00 0.00 0.00 0.00 0.00 0.00 0.00 0.00 0.00 0.00 0.00 0.00 0.00 0.00 0.00 0.00 0.00 0.00 0.00 0.00 0.00 0.00 0.00 0.00 0.00 0.00
0.00 0.00 0.00 0.00 0.00 0.00 0.00 0.00 0.00 0.00 0.00 0.00 0.00 0.00 0.00 0.00 0.00 0.00 0.00 0.00 0.00 0.00 0.00 0.00 0.00 0.00 0.00 0.00 0.00 0.00 0.00 0.00 0.00 0.00 0.00 0.00 0.00 0.00 0.00 0.00 0.00 0.01 0.00 0.00 0.00
0.00 0.00 0.00 0.00 0.00 0.00 0.00 0.00 0.00 0.00 0.00 0.00 0.00 0.00 0.00 0.00 0.00 0.00 0.00 0.00 0.00 0.00 0.00 0.00 0.00 0.00 0.00 0.00 0.00 0.00 0.00 0.00 0.00 0.00 0.00 0.00 0.00 0.00 0.00 0.00 0.00 0.00 0.00 0.00 0.00
0.00 0.00 0.00 0.00 0.00 0.00 0.00 0.00 0.00 0.00 0.00 0.00 0.00 0.00 0.00 0.00 0.00 0.00 0.00 0.00 0.00 0.00 0.00 0.00 0.00 0.00 0.00 0.00 0.00 0.00 0.00 0.00 0.00 0.00 0.00 0.00 0.00 0.00 0.00 0.00 0.00 0.02 0.01 0.01 0.00
0.00 0.00 0.00 0.00 0.00 0.00 0.00 0.00 0.00 0.00 0.00 0.00 0.00 0.00 0.00 0.00 0.00 0.00 0.00 0.00 0.00 0.00 0.00 0.00 0.00 0.00 0.00 0.00 0.00 0.00 0.00 0.00 0.00 0.00 0.00 0.00 0.00 0.00 0.00 0.00 0.00 0.00 0.00 0.00 0.00
0.00 0.00 0.00 0.00 0.00 0.00 0.00 0.00 0.00 0.00 0.00 0.00 0.00 0.00 0.00 0.00 0.00 0.00 0.00 0.00 0.00 0.00 0.00 0.00 0.00 0.00 0.00 0.00 0.00 0.00 0.00 0.00 0.00 0.00 0.00 0.00 0.00 0.00 0.00 0.00 0.00 0.00 0.00 0.00 0.00
0.00 0.00 0.00 0.00 0.00 0.00 0.00 0.00 0.00 0.00 0.00 0.00 0.00 0.00 0.00 0.00 0.00 0.00 0.00 0.00 0.00 0.00 0.00 0.00 0.00 0.00 0.00 0.00 0.00 0.00 0.00 0.00 0.00 0.00 0.00 0.00 0.00 0.00 0.00 0.00 0.00 0.00 0.00 0.00 0.00
0.00 0.00 0.00 0.00 0.00 0.00 0.00 0.00 0.00 0.00 0.00 0.00 0.00 0.00 0.00 0.00 0.00 0.00 0.00 0.00 0.00 0.00 0.00 0.00 0.00 0.00 0.00 0.00 0.00 0.00 0.00 0.00 0.00 0.00 0.00 0.00 0.00 0.00 0.00 0.00 0.00 0.00 0.00 0.00 0.00
0.00 0.00 0.00 0.00 0.00 0.00 0.00 0.00 0.00 0.00 0.00 0.00 0.00 0.00 0.00 0.00 0.00 0.00 0.00 0.00 0.00 0.00 0.00 0.00 0.00 0.00 0.00 0.00 0.00 0.00 0.00 0.00 0.00 0.00 0.00 0.00 0.00 0.00 0.00 0.00 0.00 0.00 0.00 0.00 0.00
0.00 0.00 0.00 0.00 0.00 0.00 0.00 0.00 0.00 0.00 0.00 0.00 0.00 0.00 0.00 0.00 0.00 0.00 0.00 0.00 0.00 0.00 0.00 0.00 0.00 0.00 0.00 0.00 0.00 0.00 0.00 0.00 0.00 0.00 0.00 0.00 0.00 0.00 0.00 0.00 0.01 0.00 0.00 0.00 0.00
0.00 0.00 0.00 0.00 0.00 0.00 0.00 0.00 0.00 0.00 0.00 0.00 0.00 0.00 0.00 0.00 0.00 0.00 0.00 0.00 0.00 0.00 0.00 0.00 0.00 0.00 0.00 0.00 0.00 0.00 0.00 0.00 0.00 0.00 0.00 0.00 0.01 0.02 0.01 0.01 0.01 0.01 0.01 0.00 0.01
MSLP
1015.74 1015.57 1015.29 1015.26 1015.10 1014.89 1014.77 1014.54 1014.33 1014.13 1013.83 1013.37 1013.15 1013.00 1012.73 1012.27 1011.98 1012.12 1010.76 1008.69 1008.99 1008.97 1009.20 1009.82 1010.33 1010.38 1010.37 1011.06 1011.98 1013.30 1015.38 1016.97 1017.41 1017.40 1017.03 1017.21 1017.74 1018.44 1018.79 1018.98 1019.28 1019.80 1020.00 1020.69 1021.12
1015.78 1015.42 1015.22 1014.91 1014.73 1014.68 1014.49 1014.37 1014.07 1013.79 1013.52 1013.10 1012.82 1012.73 1012.46 1012.20 1011.85 1010.72 1008.30 1008.49 1008.67 1008.80 1009.06 1009.45 1009.77 1009.98 1010.47 1011.19 1011.98 1013.21 1015.30 1015.98 1016.13 1015.93 1016.15 1017.00 1017.69 1018.63 1019.03 1019.47 1019.73 1019.97 1020.65 1021.14 1021.37
1015.45 1015.24 1015.01 1014.82 1014.64 1014.51 1014.43 1014.09 1013.86 1013.55 1013.29 1012.80 1012.56 1012.45 1012.17 1012.10 1011.36 1009.06 1007.90 1008.50 1008.89 1008.81 1008.73 1008.99 1009.36 1009.75 1011.11 1011.96 1012.62 1013.40 1015.03 1015.50 1014.63 1014.73 1015.87 1017.25 1018.14 1018.78 1019.32 1020.02 1020.09 1019.70 1020.11 1020.59 1021.20
1015.39 1015.02 1014.77 1014.62 1014.40 1014.46 1014.21 1013.81 1013.60 1013.30 1013.02 1012.61 1012.37 1012.19 1011.90 1011.87 1010.31 1008.10 1007.92 1008.68 1008.77 1008.80 1008.73 1009.10 1009.81 1010.75 1011.71 1012.61 1012.75 1013.57 1014.89 1014.69 1014.64 1015.39 1016.28 1017.72 1018.49 1019.22 1019.36 1019.64 1019.81 1020.65 1020.78 1020.97 1021.30
1015.43 1015.13 1014.76 1014.48 1014.44 1014.30 1013.89 1013.51 1013.41 1013.00 1012.68 1012.39 1012.14 1011.91 1011.61 1010.83 1008.96 1007.72 1008.13 1008.73 1008.98 1009.11 1009.02 1009.17 1010.08 1011.18 1011.90 1012.81 1013.08 1013.96 1015.13 1015.39 1015.63 1016.45 1017.29 1018.00 1018.68 1019.35 1020.06 1020.22 1019.97 1020.49 1021.34 1021.50 1021.78
1015.25 1014.99 1014.75 1014.50 1014.13 1013.91 1013.47 1013.21 1012.97 1012.66 1012.32 1012.20 1012.09 1011.93 1011.40 1009.47 1007.31 1007.43 1008.04 1009.18 1009.20 1009.07 1008.79 1009.31 1009.97 1010.57 1012.16 1013.21 1013.67 1014.64 1015.22 1015.89 1016.74 1017.03 1018.25 1018.86 1019.75 1019.68 1020.33 1020.39 1021.07 1021.01 1021.71 1021.86 1021.95
1015.10 1014.69 1014.43 1014.00 1013.70 1013.45 1012.98 1012.69 1012.45 1012.23 1012.04 1012.00 1012.07 1011.85 1010.87 1008.31 1007.25 1007.60 1007.86 1008.36 1008.65 1008.42 1008.99 1009.32 1009.90 1010.64 1012.46 1013.64 1014.41 1014.72 1015.91 1016.77 1017.50 1018.11 1018.74 1019.16 1019.49 1019.99 1020.97 1021.49 1021.85 1021.92 1022.19 1022.48 1022.14
1015.05 1014.62 1014.19 1013.82 1013.36 1012.93 1012.57 1012.26 1011.90 1011.80 1011.76 1011.82 1011.81 1011.64 1009.82 1007.46 1007.47 1008.07 1007.92 1007.86 1007.98 1008.22 1008.46 1009.27 1009.97 1011.43 1012.69 1013.81 1014.58 1015.19 1016.00 1017.30 1018.38 1018.40 1018.47 1019.06 1019.87 1020.63 1020.88 1021.33 1021.87 1022.31 1022.87 1023.03 1022.62
1014.97 1014.50 1014.00 1013.49 1013.02 1012.58 1012.05 1011.73 1011.39 1011.36 1011.58 1011.57 1011.63 1011.00 1008.73 1007.67 1007.56 1007.09 1007.48 1007.62 1007.79 1008.42 1008.68 1009.11 1010.06 1012.08 1013.28 1013.96 1014.82 1015.31 1015.80 1017.07 1018.09 1018.35 1018.62 1019.21 1020.17 1020.66 1021.12 1021.51 1021.96 1022.34 1023.17 1023.56 1023.64
1014.79 1014.30 1013.87 1013.34 1012.96 1012.44 1011.70 1011.24 1011.30 1011.29 1011.57 1011.29 1010.90 1010.36 1008.14 1007.37 1006.77 1006.64 1006.77 1007.01 1007.64 1008.45 1009.23 1009.47 1010.84 1011.99 1013.28 1013.64 1014.06 1014.64 1015.67 1016.99 1017.83 1018.60 1018.63 1019.40 1020.37 1020.78 1021.11 1021.33 1022.12 1023.19 1023.14 1022.60 1023.00
1014.70 1014.21 1013.74 1013.35 1013.12 1012.51 1011.24 1011.16 1011.47 1011.31 1011.03 1010.08 1009.42 1008.85 1007.84 1006.80 1006.38 1006.35 1006.51 1006.85 1007.41 1008.44 1009.49 1010.29 1011.25 1011.93 1012.01 1012.44 1012.45 1013.01 1014.38 1016.64 1018.22 1018.94 1019.39 1020.20 1020.69 1021.19 1021.33 1021.53 1022.01 1023.26 1023.30 1022.44 1022.55
1014.62 1014.12 1013.60 1013.32 1012.95 1012.47 1012.36 1011.73 1010.83 1011.05 1010.40 1008.73 1008.36 1007.97 1006.97 1006.72 1006.98 1006.36 1006.47 1007.09 1007.79 1008.68 1009.57 1010.79 1011.20 1011.10 1011.16 1011.77 1012.35 1013.15 1014.73 1017.06 1018.61 1019.29 1019.79 1020.95 1021.69 1022.07 1022.06 1022.10 1022.14 1022.59 1022.82 1022.78 1023.14
1014.46 1013.89 1013.39 1013.15 1012.68 1012.51 1011.98 1010.77 1009.91 1010.09 1010.04 1008.18 1007.46 1006.83 1006.38 1006.78 1006.99 1006.59 1006.84 1007.17 1007.91 1008.79 1009.75 1010.68 1010.93 1010.94 1011.31 1011.83 1012.51 1013.22 1014.43 1016.68 1018.11 1019.62 1020.56 1021.23 1022.06 1022.44 1022.75 1022.77 1022.88 1023.01 1022.96 1023.34 1023.49
1014.31 1013.82 1013.33 1012.79 1012.95 1012.09 1010.89 1009.65 1009.55 1009.57 1009.66 1008.05 1006.89 1005.63 1005.87 1006.26 1006.65 1006.11 1006.38 1007.23 1008.23 1008.93 1009.93 1010.60 1010.67 1011.11 1011.54 1012.04 1012.86 1013.46 1014.21 1015.95 1018.07 1019.45 1021.05 1021.49 1022.87 1022.76 1022.84 1022.99 1023.20 1023.31 1023.30 1023.50 1023.65
1014.16 1013.72 1013.30 1013.12 1012.49 1011.52 1009.92 1009.17 1008.96 1009.47 1009.34 1007.57 1006.16 1005.01 1005.52 1006.27 1006.38 1006.40 1006.47 1007.11 1008.28 1009.25 1010.09 1010.67 1010.81 1011.06 1011.68 1012.04 1012.40 1013.79 1014.40 1016.18 1018.14 1019.48 1021.09 1022.37 1022.83 1023.11 1023.05 1023.19 1023.21 1023.42 1023.64 1023.72 1023.66
1013.99 1013.61 1013.26 1012.85 1012.55 1010.54 1009.67 1009.21 1009.20 1009.87 1008.96 1007.46 1006.07 1005.68 1006.16 1006.41 1006.58 1006.70 1007.05 1007.42 1008.64 1009.77 1010.58 1011.09 1011.11 1011.64 1011.97 1012.27 1012.69 1014.13 1015.40 1017.47 1018.98 1020.52 1022.26 1023.00 1023.10 1023.40 1023.28 1023.33 1023.14 1023.13 1023.11 1023.39 1023.43
1013.90 1013.48 1013.40 1012.31 1011.17 1010.11 1009.46 1009.39 1010.20 1010.13 1008.94 1008.00 1006.93 1006.66 1007.17 1007.70 1007.69 1007.97 1008.77 1009.49 1010.19 1011.21 1011.86 1011.86 1012.44 1012.49 1012.62 1012.70 1013.14 1014.41 1016.25 1018.43 1020.40 1021.66 1022.95 1022.84 1022.95 1023.17 1022.92 1022.84 1022.96 1022.84 1022.69 1022.89 1023.14
1013.41 1013.14 1012.29 1011.09 1010.51 1010.17 1010.07 1010.62 1010.68 1009.92 1009.06 1008.10 1007.40 1007.35 1007.78 1008.11 1009.45 1009.74 1010.29 1011.05 1011.17 1011.51 1012.50 1013.12 1013.64 1013.79 1014.06 1014.06 1014.46 1015.11 1016.36 1018.33 1020.54 1022.64 1023.42 1023.20 1023.33 1022.79 1022.34 1022.24 1022.36 1022.35 1022.45 1022.57 1022.72
1012.78 1012.59 1012.14 1010.19 1010.02 1010.34 1010.87 1011.31 1010.94 1010.09 1009.00 1008.37 1007.85 1008.08 1008.69 1008.84 1009.68 1010.65 1011.71 1012.55 1012.48 1012.57 1013.09 1013.83 1014.91 1014.87 1014.81 1014.80 1015.11 1015.90 1017.09 1018.54 1020.84 1022.99 1023.82 1024.02 1023.56 1022.52 1022.13 1022.11 1022.27 1022.64 1022.68 1022.84 1023.00
1013.06 1012.33 1011.19 1009.57 1009.73 1010.39 1011.49 1011.78 1010.63 1009.43 1008.58 1008.40 1008.87 1009.07 1009.63 1010.00 1010.68 1011.73 1012.55 1012.92 1012.98 1013.03 1013.07 1014.19 1015.39 1016.08 1015.76 1015.68 1015.94 1016.69 1017.82 1019.18 1020.97 1023.29 1024.28 1024.37 1023.90 1023.44 1022.67 1022.31 1022.33 1022.64 1022.90 1022.92 1022.88
1013.19 1012.17 1010.17 1009.72 1009.94 1011.28 1012.26 1011.44 1010.27 1008.81 1008.28 1008.67 1009.16 1009.92 1010.53 1010.93 1011.64 1012.46 1013.36 1013.49 1013.33 1013.55 1013.71 1014.73 1015.87 1017.35 1016.92 1017.86 1018.11 1017.93 1018.77 1020.34 1021.74 1023.45 1024.06 1024.41 1024.08 1023.36 1022.95 1022.58 1022.41 1022.44 1022.45 1022.60 1022.68
1013.03 1012.31 1010.39 1010.31 1011.27 1012.41 1012.23 1011.20 1010.23 1009.24 1008.68 1009.07 1009.64 1010.56 1011.05 1011.65 1012.52 1013.08 1013.59 1013.54 1013.60 1013.81 1015.06 1016.16 1017.64 1018.87 1018.95 1018.75 1018.61 1018.78 1019.89 1021.03 1022.44 1024.21 1024.66 1024.61 1024.43 1023.50 1022.97 1022.82 1022.65 1022.49 1022.21 1022.01 1022.12
1013.63 1012.46 1010.54 1010.22 1012.07 1012.92 1011.91 1011.29 1010.30 1009.72 1009.74 1010.24 1010.89 1011.39 1011.88 1012.52 1013.42 1013.74 1013.74 1013.88 1013.82 1014.62 1015.71 1016.63 1018.66 1019.78 1019.76 1019.74 1019.53 1020.30 1020.89 1021.64 1022.71 1023.87 1025.23 1025.55 1025.18 1024.10 1023.81 1023.67 1023.51 1023.25 1022.77 1022.38 1022.65
1014.03 1013.19 1012.14 1012.04 1012.57 1012.67 1012.55 1011.82 1011.21 1010.61 1010.77 1011.36 1012.04 1012.09 1012.58 1013.45 1013.53 1014.08 1014.28 1014.61 1014.75 1015.63 1016.17 1016.79 1019.29 1019.85 1020.63 1020.83 1021.08 1021.71 1021.98 1022.31 1023.04 1024.83 1025.60 1025.87 1025.79 1025.24 1024.98 1024.81 1024.66 1024.31 1023.70 1022.83 1022.69
1014.26 1013.95 1013.29 1013.32 1013.25 1012.92 1012.58 1012.17 1011.66 1011.69 1011.60 1012.00 1012.67 1012.99 1013.52 1014.38 1014.32 1014.75 1014.96 1015.39 1015.79 1016.38 1016.93 1018.25 1020.18 1020.56 1021.09 1021.36 1021.62 1022.59 1023.12 1023.48 1024.12 1024.95 1025.57 1026.31 1026.24 1026.30 1025.95 1025.98 1025.75 1025.72 1025.02 1024.46 1023.86
1014.31 1013.86 1013.56 1013.66 1013.28 1012.99 1012.86 1012.53 1012.28 1012.57 1012.89 1013.03 1013.50 1013.90 1013.89 1014.33 1014.46 1015.10 1015.49 1016.02 1016.70 1017.26 1018.11 1019.32 1020.72 1021.08 1022.04 1022.06 1022.52 1023.39 1024.01 1024.39 1025.00 1025.42 1025.95 1026.26 1026.39 1026.48 1026.36 1025.81 1026.08 1026.18 1025.53 1025.26 1024.45
1013.99 1013.56 1013.47 1014.29 1013.84 1013.37 1012.96 1012.82 1012.77 1012.62 1013.46 1013.66 1013.99 1014.36 1014.73 1014.85 1015.00 1015.70 1016.03 1016.55 1016.98 1017.91 1019.08 1020.15 1021.30 1022.06 1022.77 1022.72 1022.99 1024.15 1024.85 1025.10 1025.81 1026.10 1026.36 1026.53 1026.54 1026.44 1026.13 1026.17 1026.45 1026.33 1025.98 1025.54 1025.14
Thickness
5764 5765 5767 5768 5769 5769 5770 5771 5771 5772 5773 5775 5776 5775 5777 5781 5784 5782 5785 5806 5805 5808 5807 5800 5795 5793 5795 5784 5781 5764 5718 5698 5701 5703 5715 5723 5714 5714 5715 5707 5706 5701 5699 5695 5693
5761 5764 5766 5769 5770 5770 5772 5771 5773 5774 5774 5777 5779 5778 5780 5783 5785 5786 5813 5812 5812 5810 5807 5798 5791 5793 5783 5778 5774 5752 5719 5722 5730 5733 5729 5725 5716 5708 5705 5701 5699 5699 5695 5691 5688
5761 5764 5766 5768 5769 5771 5771 5773 5774 5774 5775 5779 5781 5780 5783 5785 5786 5795 5818 5813 5810 5813 5814 5808 5803 5797 5776 5770 5765 5755 5727 5735 5743 5749 5737 5721 5713 5712 5702 5691 5696 5697 5697 5695 5686
5759 5764 5766 5768 5770 5770 5772 5774 5775 5776 5777 5780 5782 5783 5786 5786 5761 5812 5819 5813 5814 5814 5811 5804 5794 5778 5768 5760 5769 5749 5744 5747 5750 5745 5734 5715 5711 5698 5700 5698 5700 5688 5686 5683 5679
5756 5760 5765 5768 5768 5770 5773 5776 5776 5778 5779 5781 5784 5786 5789 5786 5790 5821 5819 5814 5812 5809 5803 5798 5784 5772 5766 5759 5762 5747 5740 5741 5740 5731 5723 5717 5706 5700 5693 5695 5694 5686 5676 5672 5667
5755 5758 5761 5764 5768 5771 5775 5777 5778 5780 5782 5783 5785 5787 5788 5780 5825 5825 5822 5810 5808 5809 5808 5802 5792 5789 5766 5757 5749 5747 5740 5733 5726 5722 5711 5702 5694 5699 5691 5693 5682 5679 5667 5661 5659
5755 5759 5762 5767 5770 5773 5777 5779 5781 5783 5785 5785 5785 5788 5785 5795 5827 5826 5824 5816 5814 5817 5802 5807 5801 5786 5767 5751 5749 5746 5725 5721 5713 5713 5704 5703 5694 5690 5683 5678 5667 5665 5657 5651 5653
5753 5758 5762 5766 5771 5776 5779 5781 5785 5786 5786 5786 5788 5788 5783 5826 5827 5822 5822 5819 5823 5822 5817 5810 5801 5777 5765 5758 5744 5731 5722 5699 5700 5707 5706 5699 5680 5682 5683 5673 5661 5655 5645 5643 5644
5752 5757 5762 5767 5772 5777 5781 5785 5788 5788 5787 5788 5788 5788 5787 5824 5815 5829 5828 5815 5819 5814 5814 5811 5795 5767 5758 5738 5724 5721 5712 5702 5699 5704 5702 5693 5677 5680 5676 5668 5657 5650 5638 5631 5629
5752 5757 5761 5766 5771 5776 5783 5787 5787 5788 5787 5790 5792 5783 5804 5801 5822 5830 5832 5827 5812 5803 5792 5792 5770 5754 5738 5731 5715 5719 5713 5704 5692 5695 5696 5683 5674 5675 5673 5668 5653 5636 5630 5634 5630
5752 5757 5761 5765 5769 5774 5784 5783 5777 5778 5785 5787 5793 5792 5801 5822 5831 5825 5829 5819 5810 5793 5764 5772 5751 5740 5750 5746 5753 5745 5728 5698 5692 5695 5683 5673 5673 5667 5668 5664 5655 5634 5624 5630 5631
5751 5756 5761 5764 5769 5772 5774 5774 5781 5782 5766 5799 5802 5803 5818 5822 5797 5814 5827 5798 5793 5771 5777 5752 5740 5761 5766 5753 5749 5740 5720 5684 5685 5689 5678 5670 5656 5653 5653 5652 5653 5644 5633 5629 5626
5751 5756 5760 5764 5768 5773 5777 5784 5799 5798 5771 5791 5805 5808 5814 5815 5796 5801 5813 5802 5788 5775 5766 5748 5755 5766 5757 5747 5738 5732 5718 5690 5681 5679 5672 5661 5648 5647 5645 5645 5643 5638 5637 5629 5623
5750 5755 5761 5766 5768 5776 5782 5801 5803 5803 5750 5774 5795 5812 5819 5816 5796 5824 5823 5806 5786 5771 5764 5759 5768 5757 5745 5737 5731 5718 5728 5706 5688 5670 5649 5661 5622 5640 5641 5637 5635 5633 5632 5625 5620
5750 5756 5761 5764 5772 5776 5794 5804 5807 5796 5712 5787 5799 5836 5822 5803 5806 5808 5825 5807 5778 5774 5768 5756 5758 5751 5741 5742 5746 5724 5729 5705 5691 5668 5652 5639 5624 5632 5636 5629 5628 5627 5622 5619 5615
5751 5755 5760 5766 5769 5787 5797 5803 5798 5740 5721 5771 5802 5798 5797 5802 5802 5807 5803 5808 5794 5771 5765 5758 5768 5752 5746 5744 5743 5724 5709 5689 5672 5654 5626 5633 5626 5617 5621 5627 5627 5626 5624 5620 5617
5750 5756 5759 5768 5775 5790 5798 5790 5736 5717 5770 5764 5775 5791 5779 5774 5781 5784 5770 5759 5751 5737 5732 5744 5740 5747 5744 5735 5734 5714 5688 5657 5653 5628 5626 5639 5622 5616 5628 5629 5626 5624 5625 5622 5618
5754 5758 5768 5777 5785 5790 5788 5756 5725 5746 5754 5782 5785 5783 5769 5776 5764 5765 5758 5743 5759 5751 5726 5715 5695 5723 5729 5721 5713 5708 5691 5659 5652 5618 5618 5632 5612 5617 5635 5634 5628 5627 5625 5621 5617
5758 5761 5767 5786 5789 5788 5765 5725 5729 5746 5769 5770 5777 5761 5759 5772 5765 5756 5742 5736 5746 5746 5727 5709 5695 5723 5719 5717 5710 5697 5671 5678 5637 5624 5610 5608 5621 5629 5635 5631 5626 5619 5616 5610 5607
5754 5760 5769 5788 5790 5778 5744 5725 5746 5771 5782 5779 5753 5763 5750 5755 5750 5743 5736 5746 5741 5746 5748 5726 5690 5705 5710 5709 5704 5691 5688 5663 5638 5613 5607 5606 5608 5601 5616 5621 5620 5614 5608 5603 5601
5751 5749 5777 5786 5786 5752 5727 5735 5757 5783 5790 5774 5763 5756 5755 5753 5747 5736 5728 5739 5744 5739 5735 5719 5698 5683 5693 5676 5668 5669 5663 5651 5637 5621 5609 5605 5604 5614 5617 5619 5619 5611 5607 5601 5597
5749 5738 5777 5780 5740 5727 5731 5753 5766 5775 5785 5777 5770 5757 5753 5750 5738 5731 5726 5736 5744 5736 5711 5706 5676 5658 5669 5681 5684 5677 5663 5646 5626 5620 5604 5596 5596 5616 5619 5613 5612 5610 5608 5604 5598
5739 5743 5774 5775 5720 5721 5743 5753 5765 5768 5770 5763 5752 5755 5751 5742 5721 5729 5732 5742 5738 5727 5710 5704 5666 5646 5651 5660 5669 5654 5653 5645 5628 5614 5598 5585 5587 5609 5605 5603 5596 5593 5591 5593 5588
5737 5730 5744 5747 5739 5735 5735 5738 5745 5768 5763 5754 5746 5748 5739 5723 5728 5724 5724 5728 5729 5713 5707 5700 5661 5657 5639 5645 5649 5637 5639 5638 5624 5597 5594 5588 5585 5588 5586 5582 5580 5580 5579 5584 5584
5734 5730 5738 5723 5729 5734 5737 5742 5740 5739 5756 5749 5736 5735 5728 5714 5716 5712 5718 5716 5715 5707 5699 5685 5655 5659 5655 5652 5647 5633 5627 5624 5613 5610 5591 5587 5576 5572 5576 5569 5565 5560 5564 5565 5563
5731 5731 5733 5726 5738 5737 5732 5740 5738 5740 5738 5735 5725 5727 5726 5716 5717 5707 5710 5707 5701 5702 5687 5675 5652 5657 5643 5650 5640 5621 5619 5612 5605 5600 5591 5581 5573 5572 5571 5570 5561 5556 5554 5553 5553
5738 5742 5736 5720 5727 5729 5732 5738 5738 5746 5738 5738 5728 5719 5713 5718 5721 5712 5708 5702 5702 5692 5678 5667 5651 5642 5632 5643 5629 5603 5601 5600 5593 5587 5581 5567 5570 5569 5568 5561 5552 5548 5547 5545 5540